Location: Flotzheim
(48.8375°N, 10.8136°E)
Time: 03:12:29
(UTC+00:00)

Cosmos 1812 Rocket - Pass Details

Date: 23 January 2021
Orbit: 604 x 633 km, 82.5° (Epoch: 26 February)

Event Time Altitude Azimuth Distance (km) Brightness Sun altitude
Rises 17:56:41 0° 350° (N) 2,911 7.0 -18.9°
Reaches altitude 10° 17:58:56 10° 350° (N) 1,995 6.2 -19.3°
Maximum altitude 18:03:21 90° 283° (WNW) 622 3.5 -20.0°
Drops below altitude 10° 18:07:43 10° 172° (S) 1,961 6.1 -20.7°
Sets 18:09:54 0° 172° (S) 2,857 7.0 -21.1°
